Aérodrome :
LOGIN :

S'inscrire | Disclaimer

   EN    FR    IT 

 










Légende :    VFR   VFR Marginal   IFR   IFR Intensif   IFR Très Intensif
Visi : 
Plafond : 
>= 8 km
>= 3000ft
5 à 8 km
1000 à 3000 ft
1500m à 5 km
500 à 1000 ft
800 à 1500m
200 à 500 ft
< 800m
< 200 ft
Symboles :   Orages  Brouillard  Fortes neiges  Fortes précipitations  Vent > 20 kt
SIGMETs :   Divers  Orages  Givrage  Turbulence  Onde Orograph.  Cendres Volcan.






- Altitude de l'aérodrome : 1345 ft
- Code IATA : FRZ


ETHF - Fritzlar

DERNIER METAR :
  • 221420Z VRB02KT 8000 OVC010 05/03 Q1008 GRN

METARs EXPIRÉS :
  • 221320Z 16005KT 8000 OVC009 05/03 Q1008 GRN

TAF AMD TAF ETHF
Valide du 22 à 09h jusqu'au 22 à 18h UTC


221038Z 2209/2218 VRB02KT 1500 BR OVC005
TEMPO 2209/2210 00000KT 0500 FG VV002
BECMG 2209/2211 17004KT 5000 BR BKN015
BECMG 2211/2213 17004KT 8000 NSW BKN020 CANCEL 1100



MET'MAP, la Météo Aéronautique d'un coup d'oeil ! - Copyright ORBIFLY Décembre 2007 - Disclaimer

ORBIFLY MET'MAP TEAM :

Programmation & Développement : Alexandra Zaïnal
Conception & Développement : Baudouin d'Aumeries
Co-Programmation & Développement : Marc-Olivier Méhu
Soutien technique & logistique : Manuel Goepfert

Contact : metmap@orbifly.com




SOURCES & CREDITS :

   NOAA